• în România
  • Lista ţărilor
  • Pe 7 zile
  • Temperatura apei
  • Hartă satelitară
  • Meteo pe hartă
  • Widget-uri
  • user-avatar
    Intrare

    Meteo pe oră la Igunkovo

    Astăzi, 15 Noiembrie, Joi

    Timp Temperatura Precipitaţii Vânt Presiune Umiditate
    00:00 -4°C° 0.1 mm 2 m/s 751 mmHg 85%
    01:00 -4°C° 0.1 mm 2 m/s 751 mmHg 86%
    02:00 -4°C° 0 mm 2 m/s 752 mmHg 81%
    03:00 -4°C° 0 mm 2 m/s 752 mmHg 83%
    04:00 -4°C° 0 mm 2 m/s 753 mmHg 84%
    05:00 -4°C° 0 mm 2 m/s 753 mmHg 85%
    06:00 -4°C° 0 mm 2 m/s 754 mmHg 86%
    07:00 -4°C° 0 mm 2 m/s 754 mmHg 86%
    08:00 -4°C° 0 mm 2 m/s 755 mmHg 86%
    09:00 -3°C° 0.1 mm 2 m/s 755 mmHg 85%
    10:00 -2°C° 0.1 mm 2 m/s 756 mmHg 83%
    11:00 -2°C° 0.1 mm 2 m/s 756 mmHg 81%
    12:00 -2°C° 0 mm 2 m/s 756 mmHg 82%
    13:00 -2°C° 0 mm 2 m/s 757 mmHg 83%
    14:00 -2°C° 0 mm 2 m/s 757 mmHg 84%
    15:00 -2°C° 0 mm 2 m/s 757 mmHg 86%
    16:00 -1°C° 0 mm 1 m/s 758 mmHg 88%
    17:00 -1°C° 0 mm 1 m/s 758 mmHg 90%
    18:00 -1°C° 0 mm 1 m/s 759 mmHg 90%
    19:00 -3°C° 0 mm 2 m/s 759 mmHg 90%
    20:00 -3°C° 0 mm 2 m/s 759 mmHg 90%
    21:00 -3°C° 0 mm 2 m/s 759 mmHg 90%
    22:00 -3°C° 0 mm 2 m/s 760 mmHg 90%
    23:00 -3°C° 0 mm 2 m/s 760 mmHg 90%

    Mâine, 16 Noiembrie, Vineri

    Timp Temperatura Precipitaţii Vânt Presiune Umiditate
    00:00 -3°C° 0 mm 2 m/s 760 mmHg 90%
    01:00 -4°C° 0 mm 2 m/s 760 mmHg 91%
    02:00 -4°C° 0 mm 2 m/s 761 mmHg 91%
    03:00 -4°C° 0 mm 2 m/s 761 mmHg 91%
    04:00 -4°C° 0 mm 2 m/s 761 mmHg 92%
    05:00 -4°C° 0 mm 2 m/s 761 mmHg 93%
    06:00 -4°C° 0 mm 2 m/s 761 mmHg 93%
    07:00 -4°C° 0 mm 2 m/s 761 mmHg 93%
    08:00 -4°C° 0 mm 2 m/s 761 mmHg 93%
    09:00 -5°C° 0 mm 3 m/s 761 mmHg 90%
    10:00 -4°C° 0 mm 3 m/s 761 mmHg 87%
    11:00 -2°C° 0 mm 3 m/s 762 mmHg 84%
    12:00 -2°C° 0 mm 3 m/s 761 mmHg 84%
    13:00 -2°C° 0 mm 3 m/s 761 mmHg 85%
    14:00 -2°C° 0 mm 3 m/s 761 mmHg 85%
    15:00 -2°C° 0 mm 3 m/s 761 mmHg 87%
    16:00 -2°C° 0 mm 3 m/s 761 mmHg 89%
    17:00 -2°C° 0 mm 3 m/s 761 mmHg 91%
    18:00 -2°C° 0 mm 3 m/s 761 mmHg 91%
    19:00 -2°C° 0 mm 3 m/s 760 mmHg 91%
    20:00 -2°C° 0 mm 3 m/s 760 mmHg 91%
    21:00 -2°C° 0 mm 3 m/s 760 mmHg 91%
    22:00 -1°C° 0 mm 3 m/s 760 mmHg 90%
    23:00 -1°C° 0 mm 3 m/s 759 mmHg 90%

    Poimâine, 17 Noiembrie, Sâmbătă

    Timp Temperatura Precipitaţii Vânt Presiune Umiditate
    00:00 -2°C° 0 mm 4 m/s 759 mmHg 90%
    01:00 -2°C° 0 mm 4 m/s 759 mmHg 91%
    02:00 -2°C° 0 mm 4 m/s 758 mmHg 91%
    03:00 -2°C° 0.1 mm 4 m/s 758 mmHg 91%
    04:00 -2°C° 0.1 mm 4 m/s 757 mmHg 91%
    05:00 -1°C° 0.1 mm 5 m/s 756 mmHg 92%
    06:00 -1°C° 0.4 mm 4 m/s 756 mmHg 92%
    07:00 -1°C° 0.4 mm 4 m/s 755 mmHg 92%
    08:00 -1°C° 0.4 mm 4 m/s 755 mmHg 93%
    09:00 -1°C° 0.8 mm 4 m/s 754 mmHg 92%
    10:00 -1°C° 0.8 mm 4 m/s 754 mmHg 92%
    11:00 0°C° 0.8 mm 4 m/s 753 mmHg 91%
    12:00 0°C° 0.5 mm 4 m/s 752 mmHg 91%
    13:00 0°C° 0.5 mm 4 m/s 751 mmHg 91%
    14:00 0°C° 0.5 mm 5 m/s 751 mmHg 91%
    15:00 0°C° 0.3 mm 5 m/s 750 mmHg 92%
    16:00 0°C° 0.3 mm 5 m/s 749 mmHg 92%
    17:00 0°C° 0.3 mm 5 m/s 748 mmHg 93%
    18:00 0°C° 0.1 mm 4 m/s 748 mmHg 94%
    19:00 0°C° 0.1 mm 4 m/s 747 mmHg 94%
    20:00 0°C° 0.1 mm 4 m/s 746 mmHg 95%
    21:00 0°C° 0.1 mm 4 m/s 746 mmHg 95%
    22:00 0°C° 0.1 mm 4 m/s 745 mmHg 95%
    23:00 +1°C° 0.1 mm 3 m/s 745 mmHg 96%

    18 Noiembrie, Duminică

    Timp Temperatura Precipitaţii Vânt Presiune Umiditate
    00:00 +1°C° 0.3 mm 3 m/s 744 mmHg 96%
    01:00 +1°C° 0.3 mm 3 m/s 744 mmHg 96%
    02:00 +1°C° 0.3 mm 3 m/s 743 mmHg 96%
    03:00 +2°C° 0.3 mm 2 m/s 743 mmHg 97%
    04:00 +1°C° 0.3 mm 2 m/s 743 mmHg 97%
    05:00 +2°C° 0.3 mm 1 m/s 743 mmHg 98%
    06:00 +2°C° 0.1 mm 1 m/s 743 mmHg 98%
    07:00 +2°C° 0.1 mm 1 m/s 743 mmHg 98%
    08:00 +2°C° 0.1 mm 1 m/s 744 mmHg 98%
    09:00 +1°C° 0.1 mm 2 m/s 744 mmHg 97%
    10:00 +2°C° 0.1 mm 2 m/s 745 mmHg 96%
    11:00 +1°C° 0.1 mm 3 m/s 746 mmHg 95%
    12:00 +1°C° 0.2 mm 3 m/s 746 mmHg 95%
    13:00 +1°C° 0.2 mm 3 m/s 747 mmHg 94%
    14:00 +1°C° 0.2 mm 3 m/s 747 mmHg 94%
    15:00 +1°C° 0.1 mm 3 m/s 748 mmHg 94%
    16:00 +1°C° 0.1 mm 3 m/s 748 mmHg 94%
    17:00 0°C° 0.1 mm 4 m/s 749 mmHg 94%
    18:00 0°C° 0.2 mm 4 m/s 749 mmHg 93%
    19:00 0°C° 0.2 mm 4 m/s 750 mmHg 93%
    20:00 0°C° 0.2 mm 4 m/s 750 mmHg 92%
    21:00 -1°C° 0.2 mm 4 m/s 750 mmHg 92%
    22:00 -1°C° 0.2 mm 4 m/s 751 mmHg 91%
    23:00 -1°C° 0.2 mm 4 m/s 751 mmHg 91%

    19 Noiembrie, Luni

    Timp Temperatura Precipitaţii Vânt Presiune Umiditate
    00:00 -1°C° 0.2 mm 4 m/s 752 mmHg 91%
    01:00 -1°C° 0.2 mm 4 m/s 752 mmHg 91%
    02:00 -2°C° 0.2 mm 4 m/s 753 mmHg 91%
    03:00 -2°C° 0.1 mm 4 m/s 753 mmHg 91%
    04:00 -2°C° 0.1 mm 4 m/s 753 mmHg 91%
    05:00 -2°C° 0.1 mm 4 m/s 754 mmHg 91%
    06:00 -2°C° 0.1 mm 4 m/s 754 mmHg 91%
    07:00 -2°C° 0.1 mm 4 m/s 755 mmHg 91%
    08:00 -2°C° 0.1 mm 4 m/s 755 mmHg 91%
    09:00 -1°C° 0.1 mm 4 m/s 756 mmHg 91%
    10:00 -1°C° 0.1 mm 4 m/s 756 mmHg 90%
    11:00 -1°C° 0.1 mm 4 m/s 756 mmHg 90%
    12:00 -1°C° 0 mm 4 m/s 757 mmHg 90%
    13:00 0°C° 0 mm 3 m/s 757 mmHg 90%
    14:00 0°C° 0 mm 3 m/s 757 mmHg 91%
    15:00 0°C° 0.1 mm 3 m/s 757 mmHg 91%
    16:00 0°C° 0.1 mm 3 m/s 758 mmHg 92%
    17:00 0°C° 0.1 mm 3 m/s 758 mmHg 93%
    18:00 0°C° 0 mm 3 m/s 758 mmHg 93%
    19:00 +1°C° 0 mm 2 m/s 758 mmHg 94%
    20:00 -1°C° 0 mm 2 m/s 758 mmHg 94%
    21:00 -1°C° 0 mm 2 m/s 758 mmHg 95%
    22:00 -1°C° 0 mm 2 m/s 758 mmHg 95%
    23:00 -1°C° 0 mm 2 m/s 758 mmHg 96%

    20 Noiembrie, Marţi

    Timp Temperatura Precipitaţii Vânt Presiune Umiditate
    00:00 +1°C° 0 mm 1 m/s 758 mmHg 96%
    01:00 +1°C° 0 mm 1 m/s 758 mmHg 96%
    02:00 +1°C° 0 mm 1 m/s 758 mmHg 97%
    03:00 0°C° 0 mm 1 m/s 758 mmHg 96%
    04:00 0°C° 0 mm 1 m/s 758 mmHg 96%
    05:00 0°C° 0 mm 1 m/s 757 mmHg 96%
    06:00 0°C° 0 mm 1 m/s 757 mmHg 96%
    07:00 -1°C° 0 mm 1 m/s 757 mmHg 96%
    08:00 -1°C° 0 mm 1 m/s 757 mmHg 95%
    09:00 -1°C° 0 mm 1 m/s 757 mmHg 94%
    10:00 0°C° 0 mm 1 m/s 756 mmHg 92%
    11:00 -2°C° 0 mm 2 m/s 756 mmHg 90%
    12:00 0°C° 0 mm 1 m/s 756 mmHg 91%
    13:00 0°C° 0 mm 1 m/s 756 mmHg 92%
    14:00 0°C° 0 mm 1 m/s 755 mmHg 94%
    15:00 -1°C° 0 mm 1 m/s 755 mmHg 94%
    16:00 -2°C° 0 mm 1 m/s 755 mmHg 95%
    17:00 -2°C° 0 mm 1 m/s 754 mmHg 96%
    18:00 -2°C° 0 mm 1 m/s 754 mmHg 96%
    19:00 -3°C° 0 mm 1 m/s 754 mmHg 95%
    20:00 -3°C° 0 mm 1 m/s 754 mmHg 95%
    21:00 -3°C° 0 mm 1 m/s 754 mmHg 94%
    22:00 -3°C° 0 mm 1 m/s 754 mmHg 94%
    23:00 -3°C° 0 mm 1 m/s 753 mmHg 93%
    Arată mai mult